EZY9004 EGAA-EGCC

Flight info

Callsign EZY9004
Flight time 0h 32m
Altitude 25000
Route LISBO L603 PEPOD Q38 MAKUX
Aircraft A320/M-SDE3FGHIRWY/LB1

Departure

Time 2026-05-05 20:47
Airport Belfast International Airport (EGAA)

Arrival

Time 2026-05-05 21:19
Airport Manchester Airport (EGCC)
Time Latitude Longitude Altitude Speed Heading
2026-05-05 20:26 54.66180 -6.21414 272 ft 0 kts 245°
2026-05-05 20:37 54.66183 -6.21405 272 ft 4 kts 245°
2026-05-05 20:38 54.66192 -6.21368 272 ft 2 kts 245°
2026-05-05 20:38 54.66205 -6.21337 272 ft 4 kts 193°
2026-05-05 20:38 54.66224 -6.21340 278 ft 0 kts 155°
2026-05-05 20:38 54.66203 -6.21323 274 ft 4 kts 155°
2026-05-05 20:39 54.66178 -6.21304 272 ft 4 kts 155°
2026-05-05 20:39 54.66154 -6.21284 272 ft 4 kts 155°
2026-05-05 20:39 54.66129 -6.21264 274 ft 3 kts 155°
2026-05-05 20:39 54.66125 -6.21261 272 ft 0 kts 155°
2026-05-05 20:42 54.66122 -6.21259 272 ft 2 kts 155°
2026-05-05 20:42 54.66087 -6.21230 274 ft 7 kts 155°
2026-05-05 20:42 54.66039 -6.21221 272 ft 9 kts 206°
2026-05-05 20:43 54.66003 -6.21321 272 ft 10 kts 244°
2026-05-05 20:43 54.65965 -6.21461 274 ft 13 kts 245°
2026-05-05 20:43 54.65925 -6.21610 272 ft 14 kts 245°
2026-05-05 20:43 54.65882 -6.21771 272 ft 16 kts 245°
2026-05-05 20:44 54.65831 -6.21956 272 ft 15 kts 245°
2026-05-05 20:44 54.65791 -6.22109 272 ft 14 kts 247°
2026-05-05 20:44 54.65768 -6.22283 272 ft 17 kts 263°
2026-05-05 20:44 54.65752 -6.22509 272 ft 21 kts 263°
2026-05-05 20:45 54.65701 -6.22809 272 ft 12 kts 181°
2026-05-05 20:45 54.65622 -6.22767 272 ft 12 kts 162°
2026-05-05 20:45 54.65541 -6.22721 272 ft 12 kts 162°
2026-05-05 20:46 54.65465 -6.22658 272 ft 12 kts 113°
2026-05-05 20:46 54.65499 -6.22506 275 ft 23 kts 66°
2026-05-05 20:46 54.65694 -6.21783 272 ft 113 kts 65°
2026-05-05 20:46 54.66139 -6.20218 545 ft 161 kts 59°
2026-05-05 20:47 54.66638 -6.18457 1544 ft 166 kts 61°
2026-05-05 20:47 54.67039 -6.16500 2275 ft 192 kts 83°
2026-05-05 20:47 54.66598 -6.14136 3010 ft 230 kts 124°
2026-05-05 20:47 54.65405 -6.12026 3680 ft 258 kts 136°
2026-05-05 20:48 54.63998 -6.10028 4074 ft 264 kts 141°
2026-05-05 20:48 54.62545 -6.08094 4336 ft 263 kts 140°
2026-05-05 20:48 54.61099 -6.06159 4476 ft 263 kts 140°
2026-05-05 20:48 54.59670 -6.04192 4586 ft 264 kts 140°
2026-05-05 20:49 54.58238 -6.02167 4721 ft 267 kts 139°
2026-05-05 20:49 54.56810 -6.00110 4883 ft 267 kts 139°
2026-05-05 20:49 54.55391 -5.98044 4972 ft 268 kts 139°
2026-05-05 20:49 54.53973 -5.95971 4978 ft 267 kts 139°
2026-05-05 20:50 54.53015 -5.94570 4978 ft 268 kts 139°
2026-05-05 20:50 54.51614 -5.92517 4981 ft 268 kts 139°
2026-05-05 20:50 54.50198 -5.90442 4983 ft 267 kts 139°
2026-05-05 20:50 54.48779 -5.88369 4983 ft 268 kts 138°
2026-05-05 20:51 54.47356 -5.86291 4980 ft 268 kts 138°
2026-05-05 20:51 54.45921 -5.84192 5631 ft 271 kts 138°
2026-05-05 20:51 54.44489 -5.82096 7088 ft 272 kts 139°
2026-05-05 20:51 54.43017 -5.79950 8253 ft 283 kts 140°
2026-05-05 20:52 54.41493 -5.77730 9443 ft 291 kts 140°
2026-05-05 20:52 54.39921 -5.75438 10451 ft 306 kts 140°
2026-05-05 20:52 54.38229 -5.72978 11074 ft 332 kts 141°
2026-05-05 20:52 54.36371 -5.70290 11661 ft 356 kts 141°
2026-05-05 20:53 54.34440 -5.67504 12550 ft 367 kts 141°
2026-05-05 20:53 54.32496 -5.64706 13557 ft 374 kts 141°
2026-05-05 20:53 54.30484 -5.61809 14504 ft 380 kts 141°
2026-05-05 20:53 54.28455 -5.58857 15439 ft 386 kts 139°
2026-05-05 20:54 54.26577 -5.55522 16353 ft 392 kts 130°
2026-05-05 20:54 54.24932 -5.51760 17265 ft 398 kts 126°
2026-05-05 20:54 54.23311 -5.47890 18174 ft 403 kts 126°
2026-05-05 20:54 54.21666 -5.43979 18958 ft 408 kts 127°
2026-05-05 20:55 54.19996 -5.40029 19716 ft 412 kts 127°
2026-05-05 20:55 54.18301 -5.36035 20484 ft 417 kts 127°
2026-05-05 20:55 54.16592 -5.32009 21234 ft 421 kts 127°
2026-05-05 20:55 54.14867 -5.27950 21983 ft 425 kts 127°
2026-05-05 20:56 54.13123 -5.23855 22709 ft 429 kts 127°
2026-05-05 20:56 54.11360 -5.19720 23425 ft 433 kts 127°
2026-05-05 20:56 54.09583 -5.15556 24034 ft 437 kts 127°
2026-05-05 20:56 54.07781 -5.11350 24600 ft 441 kts 127°
2026-05-05 20:57 54.05963 -5.07115 24953 ft 444 kts 127°
2026-05-05 20:57 54.04141 -5.02869 25053 ft 450 kts 127°
2026-05-05 20:57 54.02274 -4.98523 25069 ft 458 kts 127°
2026-05-05 20:57 54.00387 -4.94142 25068 ft 460 kts 128°
2026-05-05 20:58 53.98489 -4.89748 25069 ft 461 kts 128°
2026-05-05 20:58 53.96588 -4.85352 25068 ft 461 kts 128°
2026-05-05 20:58 53.94688 -4.80966 25062 ft 461 kts 128°
2026-05-05 20:58 53.92785 -4.76576 25062 ft 461 kts 128°
2026-05-05 20:59 53.90881 -4.72195 25062 ft 462 kts 128°
2026-05-05 20:59 53.88973 -4.67813 25054 ft 461 kts 128°
2026-05-05 20:59 53.87094 -4.63511 25060 ft 461 kts 128°
2026-05-05 20:59 53.85180 -4.59147 25059 ft 461 kts 128°
2026-05-05 21:00 53.83269 -4.54797 25058 ft 461 kts 128°
2026-05-05 21:00 53.81359 -4.50448 25058 ft 461 kts 128°
2026-05-05 21:00 53.79447 -4.46097 25058 ft 461 kts 128°
2026-05-05 21:00 53.77534 -4.41747 25058 ft 460 kts 128°
2026-05-05 21:01 53.75621 -4.37407 25058 ft 460 kts 128°
2026-05-05 21:01 53.73900 -4.32841 25054 ft 462 kts 116°
2026-05-05 21:01 53.72891 -4.27699 25054 ft 463 kts 102°
2026-05-05 21:01 53.72260 -4.22363 25052 ft 463 kts 101°
2026-05-05 21:02 53.71643 -4.17025 25051 ft 463 kts 101°
2026-05-05 21:02 53.71030 -4.11681 24894 ft 464 kts 101°
2026-05-05 21:02 53.70416 -4.06332 24649 ft 464 kts 101°
2026-05-05 21:02 53.69800 -4.00991 24147 ft 462 kts 101°
2026-05-05 21:03 53.69180 -3.95672 22895 ft 463 kts 101°
2026-05-05 21:03 53.68562 -3.90418 21877 ft 459 kts 101°
2026-05-05 21:03 53.67942 -3.85175 20938 ft 453 kts 101°
2026-05-05 21:03 53.67326 -3.79994 20023 ft 448 kts 101°
2026-05-05 21:04 53.66712 -3.74863 19135 ft 444 kts 101°
2026-05-05 21:04 53.66102 -3.69798 18298 ft 438 kts 101°
2026-05-05 21:04 53.65475 -3.64565 17687 ft 463 kts 101°
2026-05-05 21:04 53.64864 -3.59439 17617 ft 436 kts 102°
2026-05-05 21:05 53.64287 -3.54497 16939 ft 424 kts 101°
2026-05-05 21:05 53.63699 -3.49671 16227 ft 416 kts 102°
2026-05-05 21:05 53.63097 -3.44932 15473 ft 411 kts 102°
2026-05-05 21:05 53.62498 -3.40274 14775 ft 405 kts 102°
2026-05-05 21:06 53.61897 -3.35657 14059 ft 400 kts 102°
2026-05-05 21:06 53.61299 -3.31105 13303 ft 396 kts 102°
2026-05-05 21:06 53.60703 -3.26608 12540 ft 391 kts 102°
2026-05-05 21:06 53.60109 -3.22156 11764 ft 386 kts 102°
2026-05-05 21:07 53.59519 -3.17776 11004 ft 382 kts 102°
2026-05-05 21:07 53.58930 -3.13437 10352 ft 375 kts 102°
2026-05-05 21:07 53.58361 -3.09290 10218 ft 353 kts 102°
2026-05-05 21:07 53.57809 -3.05378 10098 ft 334 kts 102°
2026-05-05 21:08 53.57288 -3.01718 9975 ft 318 kts 102°
2026-05-05 21:08 53.56790 -2.98183 9840 ft 304 kts 101°
2026-05-05 21:08 53.56368 -2.94751 9517 ft 297 kts 99°
2026-05-05 21:08 53.55993 -2.91362 9115 ft 293 kts 99°
2026-05-05 21:09 53.55638 -2.88004 8712 ft 289 kts 98°
2026-05-05 21:09 53.55287 -2.84683 8262 ft 287 kts 98°
2026-05-05 21:09 53.54932 -2.81392 8052 ft 285 kts 99°
2026-05-05 21:09 53.54534 -2.78088 8065 ft 285 kts 106°
2026-05-05 21:10 53.53577 -2.75252 8066 ft 286 kts 133°
2026-05-05 21:10 53.51989 -2.73253 8068 ft 286 kts 151°
2026-05-05 21:10 53.50173 -2.71912 8059 ft 286 kts 159°
2026-05-05 21:10 53.48306 -2.70726 7908 ft 286 kts 160°
2026-05-05 21:11 53.46448 -2.69571 7748 ft 284 kts 160°
2026-05-05 21:11 53.44596 -2.68428 7602 ft 283 kts 160°
2026-05-05 21:11 53.42755 -2.67296 7447 ft 281 kts 160°
2026-05-05 21:11 53.40926 -2.66181 7290 ft 279 kts 160°
2026-05-05 21:12 53.39094 -2.65065 7139 ft 279 kts 160°
2026-05-05 21:12 53.37268 -2.63958 6977 ft 278 kts 160°
2026-05-05 21:12 53.35457 -2.62865 6841 ft 276 kts 160°
2026-05-05 21:12 53.33657 -2.61783 6693 ft 274 kts 160°
2026-05-05 21:13 53.31874 -2.60717 6449 ft 269 kts 160°
2026-05-05 21:13 53.30129 -2.59683 5624 ft 265 kts 160°
2026-05-05 21:13 53.28394 -2.58663 4842 ft 261 kts 160°
2026-05-05 21:13 53.26759 -2.57714 4615 ft 238 kts 160°
2026-05-05 21:14 53.25297 -2.56635 4232 ft 224 kts 141°
2026-05-05 21:14 53.24351 -2.54691 3881 ft 210 kts 110°
2026-05-05 21:14 53.24080 -2.52422 3716 ft 193 kts 86°
2026-05-05 21:14 53.24381 -2.50336 3553 ft 181 kts 64°
2026-05-05 21:15 53.25095 -2.48651 3330 ft 178 kts 50°
2026-05-05 21:15 53.25863 -2.47083 3096 ft 172 kts 52°
2026-05-05 21:15 53.26616 -2.45539 2859 ft 167 kts 52°
2026-05-05 21:15 53.27331 -2.44073 2629 ft 158 kts 52°
2026-05-05 21:16 53.28008 -2.42682 2423 ft 151 kts 52°
2026-05-05 21:16 53.28663 -2.41336 2219 ft 147 kts 52°
2026-05-05 21:16 53.29296 -2.40034 2017 ft 143 kts 52°
2026-05-05 21:16 53.29907 -2.38776 1819 ft 140 kts 53°
2026-05-05 21:17 53.30518 -2.37519 1633 ft 137 kts 52°
2026-05-05 21:17 53.31097 -2.36326 1458 ft 127 kts 52°
2026-05-05 21:17 53.31635 -2.35218 1276 ft 119 kts 52°
2026-05-05 21:17 53.32153 -2.34149 1097 ft 117 kts 52°
2026-05-05 21:18 53.32666 -2.33092 934 ft 117 kts 52°
2026-05-05 21:18 53.33175 -2.32044 755 ft 116 kts 51°
2026-05-05 21:18 53.33695 -2.30992 584 ft 116 kts 52°
2026-05-05 21:18 53.34199 -2.29949 450 ft 117 kts 53°
2026-05-05 21:19 53.34707 -2.28885 291 ft 116 kts 52°
2026-05-05 21:19 53.35172 -2.27913 237 ft 90 kts 51°
2026-05-05 21:19 53.35499 -2.27235 249 ft 62 kts 51°
2026-05-05 21:19 53.35710 -2.26803 267 ft 29 kts 51°
2026-05-05 21:20 53.35814 -2.26679 270 ft 16 kts 356°
2026-05-05 21:20 53.35908 -2.26721 258 ft 10 kts 319°
2026-05-05 21:20 53.35905 -2.26823 256 ft 9 kts 238°
2026-05-05 21:20 53.35864 -2.26915 256 ft 10 kts 233°
2026-05-05 21:21 53.35825 -2.27011 256 ft 10 kts 238°
2026-05-05 21:21 53.35805 -2.27071 256 ft 4 kts 241°
2026-05-05 21:21 53.35797 -2.27122 256 ft 5 kts 275°
2026-05-05 21:21 53.35810 -2.27168 256 ft 0 kts 300°
2026-05-05 21:22 53.35817 -2.27185 255 ft 4 kts 303°
2026-05-05 21:22 53.35841 -2.27211 255 ft 5 kts 341°
2026-05-05 21:22 53.35879 -2.27222 255 ft 8 kts 351°
2026-05-05 21:22 53.35936 -2.27235 255 ft 9 kts 353°
2026-05-05 21:23 53.35983 -2.27240 255 ft 0 kts 359°
2026-05-05 21:23 53.35987 -2.27240 255 ft 2 kts
2026-05-05 21:23 53.35998 -2.27209 255 ft 5 kts 73°
2026-05-05 21:23 53.36000 -2.27160 255 ft 1 kts 87°
2026-05-05 21:24 53.36001 -2.27137 255 ft 2 kts 88°
2026-05-05 21:24 53.36001 -2.27132 255 ft 0 kts 88°